Location: Unspecified
(0.0000°N, 0.0000°E)
Time: 03:21:11
(UTC+00:00)

Vanguard 2 - Pass Details

Date: 09 December 2017
Orbit: 553 x 2939 km, 32.9° (Epoch: 21 July)

Event Time Altitude Azimuth Distance (km) Brightness Sun altitude
Rises 22:26:33 0° 341° (NNW) 3,097 - -59.0°
Reaches altitude 10° 22:29:38 10° 4° (N) 2,441 - -59.5°
Maximum altitude 22:33:07 16° 42° (NE) 2,368 - -60.0°
Drops below altitude 10° 22:37:33 10° 77° (ENE) 3,247 - -60.7°
Sets 22:42:42 0° 96° (E) 4,769 - -61.5°
